This is the latest recevied weather packets stored in our database for station/object NI4CE-11. If no packets are shown the sender has not sent any weather packets the latest 1 day(s).
| Time | Temp. | Humidity | Pressure | Rain* | Wind** | Luminosity | Snow |
|---|---|---|---|---|---|---|---|
| 1778030986 | 25.56° C | 100% | 1015.9 hPa | 0 mm | - | - | - |
| 1778030686 | 26.67° C | 100% | 1015.9 hPa | 0 mm | - | - | - |
| 1778030439 | 26.11° C | 100% | 1015.6 hPa | 0 mm | - | - | - |
| 1778030386 | 26.11° C | 100% | 1015.7 hPa | 0 mm | - | - | - |
| 1778030086 | 27.22° C | 100% | 1015.7 hPa | 0 mm | - | - | - |
| 1778029892 | 26.11° C | 100% | 1015.6 hPa | 0 mm | - | - | - |
| 1778029786 | 26.11° C | 100% | 1015.6 hPa | 0 mm | - | - | - |
| 1778029592 | 27.22° C | 100% | 1015.5 hPa | 0 mm | - | - | - |
| 1778029486 | 27.22° C | 100% | 1015.5 hPa | 0 mm | - | - | - |
| 1778029292 | 26.11° C | 100% | 1015.4 hPa | 0 mm | - | - | - |
| 1778029186 | 26.11° C | 100% | 1015.4 hPa | 0 mm | - | - | - |
| 1778028886 | 26.67° C | 100% | 1015.3 hPa | 0 mm | - | - | - |
| 1778028756 | 28.33° C | 100% | 1014.9 hPa | 0 mm | - | - | - |
| 1778028586 | 27.22° C | 100% | 1015.2 hPa | 0 mm | - | - | - |
| 1778028286 | 28.33° C | 100% | 1015.1 hPa | 0 mm | - | - | - |
| 1778027986 | 27.22° C | 100% | 1015 hPa | 0 mm | - | - | - |
| 1778027769 | 27.78° C | 100% | 1015.1 hPa | 0 mm | - | - | - |
| 1778027686 | 27.78° C | 100% | 1015.1 hPa | 0 mm | - | - | - |
| 1778027537 | 27.22° C | 100% | 1015 hPa | 0 mm | - | - | - |
| 1778027386 | 27.22° C | 100% | 1015 hPa | 0 mm | - | - | - |
| 1778027296 | 28.33° C | 100% | 1014.9 hPa | 0 mm | - | - | - |
| 1778027086 | 28.33° C | 100% | 1014.9 hPa | 0 mm | - | - | - |
| 1778027040 | 27.22° C | 100% | 1014.9 hPa | 0 mm | - | - | - |
| 1778026786 | 27.22° C | 100% | 1014.9 hPa | 0 mm | - | - | - |
| 1778026701 | 28.89° C | 100% | 1014.7 hPa | 0 mm | - | - | - |
* Rain latest hour (hover to see other rain measurements)
** Current wind speed in m/s (hover to see current wind gust speed)